Temperature
14 14 13 13 13 13 13 12 12 12 12 12 11 11 11 11 11 11 11 11 10 10 10 10 10 10 10 10 10 10 10 10 10 10 10 10 10 10 10 10 10 11 11
14 13 13 13 13 12 12 12 12 12 11 11 11 11 11 11 11 10 10 10 10 10 10 10 10 10 10 10 10 10 10 10 10 10 10 10 10 10 10 10 10 10 10
13 13 13 13 12 12 12 12 12 11 11 11 11 11 11 11 10 10 10 10 10 10 10 10 10 10 10 10 9 9 9 9 9 9 9 9 9 9 9 9 9 9 10
13 13 12 12 12 12 12 11 11 11 11 11 11 10 10 10 10 10 10 10 10 9 9 9 9 9 9 9 9 9 9 9 9 9 9 9 9 9 9 9 9 9 9
12 12 12 12 12 12 11 11 11 11 11 10 10 10 10 10 10 9 9 9 9 9 9 9 9 9 9 9 9 9 9 9 9 8 8 8 8 8 8 8 8 8 8
12 12 12 11 11 11 11 11 11 11 10 10 10 10 10 9 9 9 9 9 9 9 9 9 9 8 8 8 8 8 8 8 8 8 8 8 8 8 8 8 7 8 7
12 12 11 11 11 11 11 10 10 10 10 10 10 9 9 9 9 9 9 8 8 9 8 8 8 8 8 8 8 8 8 8 8 8 8 8 7 7 7 7 7 7 7
11 11 11 11 10 10 10 10 10 10 10 9 9 9 9 9 8 8 8 8 8 8 8 7 7 7 7 7 7 7 8 7 7 7 7 7 7 7 7 7 7 7 7
11 11 11 10 10 10 10 10 9 9 9 9 9 9 8 8 8 8 8 8 8 8 7 7 7 7 7 7 7 7 7 7 7 7 7 7 7 7 7 7 6 6 6
11 10 10 10 10 10 10 9 9 9 8 8 8 8 8 8 7 7 7 7 7 7 7 7 7 6 6 6 6 6 6 7 6 6 6 6 6 6 6 6 6 6 6
10 10 10 10 10 9 9 9 9 8 8 8 8 7 7 7 7 7 7 7 6 6 6 6 6 6 6 6 6 6 6 6 6 6 6 6 6 6 6 6 6 5 5
10 10 10 9 9 9 8 8 8 8 8 7 7 7 7 7 6 6 6 6 6 6 6 6 6 6 5 5 5 5 5 5 5 5 5 5 5 5 5 5 5 5 5
9 9 9 9 9 8 8 8 8 7 7 7 7 6 6 6 6 6 5 5 5 5 5 5 5 5 5 5 5 5 5 5 5 5 5 5 5 5 4 4 4 4 5
9 9 9 8 8 8 8 7 7 7 7 6 6 6 6 5 5 5 5 5 5 5 5 5 5 5 5 5 5 5 5 5 4 4 4 4 4 4 4 4 4 4 4
8 8 8 8 8 7 7 7 7 6 6 6 6 6 5 5 5 5 5 4 4 4 4 4 4 4 4 4 4 4 4 4 4 4 4 4 4 4 3 3 3 3 3
8 8 7 7 7 7 6 6 6 6 5 5 5 5 5 4 4 4 4 4 4 4 4 4 4 3 3 3 3 3 3 3 3 3 3 3 3 3 3 3 3 3 3
7 7 7 7 6 6 6 6 5 5 5 4 4 4 4 4 4 3 3 3 3 3 3 3 3 3 3 3 3 3 3 3 3 3 3 3 3 2 2 2 2 2 2
7 6 6 6 6 6 5 5 5 5 4 4 4 3 3 3 3 3 3 3 3 3 3 2 2 2 2 2 2 2 2 2 2 2 2 2 2 2 2 2 2 2 2
6 6 6 5 5 5 5 4 4 4 4 3 3 3 3 3 2 2 2 2 2 2 2 2 2 2 2 2 2 2 2 2 2 2 2 2 2 2 2 2 2 2 2
6 5 5 5 4 4 4 3 3 3 3 3 2 2 2 2 2 2 2 2 2 2 1 1 1 1 1 1 1 1 1 1 1 1 2 2 2 2 2 1 1 1 1
5 5 4 4 4 4 3 3 3 2 2 2 2 2 2 1 1 1 1 1 1 1 1 1 1 1 1 1 1 1 1 1 1 1 1 1 1 1 1 1 1 1 1
5 4 4 4 3 3 2 2 2 2 2 2 1 1 1 1 1 1 1 1 1 1 0 0 0 0 0 0 1 1 1 1 1 1 1 1 1 1 1 1 1 1 1
4 4 3 3 3 2 2 2 2 2 1 1 1 1 1 0 0 0 0 0 0 0 0 0 0 0 0 0 0 0 0 0 0 0 0 0 0 1 1 0 0 0 0
3 3 3 2 2 2 2 1 1 1 1 1 0 0 0 0 -0 -0 -0 -0 -0 -0 -0 -0 -0 -0 -0 -0 -0 -0 -0 -0 -0 -0 -0 0 0 0 0 0 0 0 0
2 2 2 2 2 1 1 1 1 1 1 0 0 -0 -0 -0 -0 -0 -0 -0 -0 -0 -0 -0 -0 -1 -1 -1 -0 -0 -0 -0 -0 -0 -0 -0 -0 -0 -0 -0 -0 -0 -0
2 2 1 1 1 1 1 1 0 0 0 -0 -0 -0 -0 -0 -1 -1 -1 -1 -1 -1 -1 -1 -1 -1 -1 -1 -1 -1 -1 -1 -1 -1 -1 -1 -1 -1 -1 -1 -1 -1 -0
Wind_Speed
6 5 4 4 4 4 4 4 3 3 2 2 2 1 0 0 0 0 1 0 1 2 2 1 2 2 1 1 0 1 1 2 3 3 2 2 1 2 3 3 3 3 3
6 5 5 4 4 4 4 3 3 3 3 2 2 1 1 0 0 0 1 1 1 2 2 1 2 2 1 1 1 1 2 2 3 3 2 1 1 1 1 2 3 4 3
5 5 4 4 4 4 3 3 3 3 2 2 2 2 1 1 1 1 1 1 1 2 2 2 2 1 2 2 2 2 2 1 2 2 2 1 1 1 1 2 3 3 4
5 5 5 5 5 4 3 3 3 3 3 2 2 1 1 0 1 1 1 1 2 2 2 2 2 2 3 3 2 2 2 1 1 1 1 1 1 1 1 1 2 2 3
6 5 5 4 4 4 3 2 2 2 2 3 2 2 1 1 1 1 1 1 1 2 3 3 3 2 3 2 2 2 2 2 1 1 2 1 1 0 1 1 1 1 2
6 6 5 4 4 4 3 3 3 2 2 3 2 2 1 1 2 2 2 1 1 1 2 3 3 2 3 3 3 2 2 3 3 2 2 2 3 2 1 1 1 1 2
6 5 5 5 5 4 4 4 3 2 2 2 1 1 1 1 2 3 3 2 1 1 2 2 2 2 3 2 3 3 2 2 2 3 3 4 4 3 3 2 2 2 3
6 6 5 5 5 4 4 4 3 2 2 2 1 1 0 1 2 2 3 2 1 2 2 2 1 2 2 1 1 2 2 2 2 2 4 4 4 4 4 4 3 1 2
5 6 6 6 6 5 4 4 3 2 2 1 1 1 0 1 2 2 3 1 1 2 3 2 2 2 3 4 1 1 2 2 3 2 3 3 3 3 2 1 1 1 2
6 6 6 6 6 6 5 4 2 2 2 2 1 0 1 1 2 2 2 1 1 2 2 3 3 3 4 4 1 1 2 3 2 3 3 3 2 2 2 2 3 2 2
4 4 5 5 6 6 4 3 3 2 2 1 1 1 1 1 2 2 2 0 1 1 2 2 3 4 5 4 3 2 4 3 1 2 2 1 1 1 2 2 2 3 3
4 4 4 4 5 4 4 3 3 3 3 1 1 1 1 1 2 2 2 1 1 1 2 2 3 5 5 4 3 3 3 3 0 0 1 2 2 2 2 2 2 2 3
4 4 4 4 4 4 4 4 3 2 2 2 2 1 1 1 2 3 2 2 2 1 2 4 5 5 5 3 3 3 2 1 1 1 2 3 3 2 1 1 1 1 2
5 4 4 4 4 3 3 3 3 3 3 2 2 2 2 1 1 1 1 1 1 2 2 2 4 5 3 3 3 2 2 1 1 2 3 3 2 1 2 1 1 1 1
4 4 4 4 4 4 3 3 3 3 4 4 3 3 3 3 3 2 0 1 1 1 1 1 2 2 3 3 3 2 2 2 2 2 2 2 2 2 2 1 1 1 1
4 4 3 4 3 3 3 1 1 1 1 2 2 2 2 2 1 1 2 2 1 1 1 1 1 2 2 2 3 3 3 3 2 2 2 2 2 2 2 2 1 2 2
4 4 3 4 4 4 3 3 2 1 2 2 2 1 0 1 0 0 1 0 1 1 1 0 1 2 2 2 2 2 3 3 3 2 2 2 2 2 2 2 2 2 2
3 3 3 3 3 4 3 3 3 3 1 1 1 1 1 1 1 1 0 2 1 2 0 1 1 2 2 3 3 3 3 3 3 3 2 2 2 2 2 2 2 2 2
3 3 3 3 3 3 3 3 2 2 2 1 0 1 1 1 1 1 2 1 1 1 1 2 2 2 2 3 3 3 3 3 3 3 3 3 2 2 2 2 2 2 2
2 4 4 3 3 3 3 3 2 2 2 2 2 1 1 0 0 0 0 0 1 1 2 2 2 2 3 3 3 3 3 3 4 3 3 3 2 2 2 3 2 2 2
3 3 4 3 3 3 3 3 3 3 2 2 2 2 1 2 2 1 1 1 1 2 2 2 2 2 2 2 3 3 3 3 3 4 3 3 3 2 2 2 2 2 2
3 3 3 3 3 3 3 3 3 3 3 2 1 1 1 1 1 1 1 2 2 2 2 2 2 2 2 2 2 3 3 4 4 4 4 3 3 2 2 2 2 2 2
3 3 3 2 3 3 3 3 3 3 3 2 2 1 1 1 1 1 1 2 1 1 1 1 2 2 2 2 3 2 3 4 4 4 4 3 3 3 2 2 3 3 3
3 4 3 3 3 3 3 3 3 3 3 2 2 2 2 2 2 2 2 1 1 1 1 1 2 3 3 3 3 4 4 5 5 4 4 3 3 3 3 3 3 3 3
3 3 3 3 3 3 3 3 3 3 2 2 2 2 1 1 1 1 1 1 1 2 2 2 2 2 3 4 5 5 6 7 6 5 4 3 3 3 3 3 3 3 3
3 3 3 3 3 3 3 3 3 3 2 2 2 2 2 2 2 1 1 1 1 2 2 2 3 3 4 4 5 6 7 7 7 7 4 3 3 3 3 2 3 3 3
Wind_Direction
187 186 179 182 178 172 175 183 182 180 175 177 178 171 206 156 19 72 283 347 324 318 319 311 300 291 263 259 215 198 208 175 225 273 270 275 294 330 338 328 328 333 326
187 179 179 178 172 173 182 185 175 174 185 186 171 157 195 254 229 299 271 308 272 290 292 297 295 303 295 258 226 230 227 203 197 248 283 285 271 289 349 357 355 354 346
180 173 172 175 173 179 187 182 173 170 174 168 157 164 203 262 283 291 273 281 276 274 273 270 282 281 272 273 244 243 241 232 204 206 258 266 268 355 30 6 6 358 352
174 173 178 184 184 185 182 173 166 160 160 161 159 151 151 331 322 323 317 324 314 301 289 276 276 250 241 246 245 233 215 207 205 198 240 263 268 319 64 360 348 351 341
167 174 183 182 171 159 152 149 141 137 138 143 128 104 79 58 348 359 352 7 348 330 326 308 287 285 288 256 260 221 196 196 196 206 228 252 268 279 253 246 280 331 332
169 177 173 166 158 151 147 138 124 119 121 121 131 130 100 349 348 16 42 35 5 333 328 326 320 335 339 337 330 293 207 197 205 209 219 224 245 239 232 230 246 322 310
171 170 165 162 157 155 146 128 132 139 122 121 131 124 138 288 348 21 39 57 16 326 313 318 331 350 348 325 343 353 340 300 223 200 210 228 233 226 213 227 235 234 258
171 171 167 160 157 151 145 148 155 148 143 143 154 174 137 315 354 11 27 47 18 333 320 306 306 313 320 337 16 5 325 307 274 243 222 227 229 217 208 219 215 238 280
177 179 175 165 160 159 162 168 162 148 150 163 155 148 145 308 347 11 23 51 21 335 330 329 308 295 322 338 359 332 311 305 324 311 288 274 267 255 226 177 188 190 289
189 188 179 169 166 170 172 167 159 152 160 152 135 173 202 267 316 1 25 107 354 324 328 322 317 312 316 332 319 281 296 287 302 316 320 318 316 291 270 216 206 214 258
188 178 173 169 168 167 161 157 149 143 134 137 142 295 272 277 305 344 10 120 221 274 302 303 302 321 313 311 309 257 269 286 270 272 287 298 298 281 282 276 231 217 232
171 166 168 170 166 156 150 152 152 150 149 162 168 314 310 295 300 310 331 326 310 222 265 278 288 309 313 308 306 290 302 326 317 257 276 281 275 270 267 283 283 270 242
157 163 170 167 161 155 157 159 157 159 165 181 192 224 274 302 303 308 320 330 350 325 276 289 303 315 320 317 302 304 315 311 248 242 257 260 258 261 273 296 304 331 335
159 169 171 166 163 159 162 168 169 178 181 189 204 223 248 263 281 301 309 321 328 317 301 313 335 342 337 337 348 345 330 281 246 236 250 260 264 267 269 272 277 271 313
159 165 169 170 169 167 169 181 185 201 193 190 205 205 211 233 251 265 277 272 269 266 316 0 4 353 353 353 350 342 341 339 313 271 255 268 272 266 274 284 278 269 257
161 169 171 168 169 167 159 126 44 154 166 177 188 193 233 245 242 269 305 314 314 332 41 27 339 331 326 327 331 329 328 322 306 298 280 270 272 266 268 277 269 240 243
170 177 172 169 167 166 163 162 153 40 52 85 108 109 48 25 141 265 296 335 21 70 74 309 301 306 311 311 308 307 306 305 305 293 283 279 276 276 271 270 266 259 256
174 179 172 173 170 171 174 174 169 167 164 336 340 360 11 10 328 290 70 76 48 42 16 291 293 296 301 303 301 303 307 311 312 304 286 279 277 275 274 267 260 261 267
175 174 169 164 161 162 161 156 157 166 170 173 310 320 330 335 359 42 98 107 169 286 298 299 295 297 302 301 303 306 307 307 305 301 289 278 274 273 272 267 267 277 291
171 165 152 154 155 153 154 158 166 170 174 186 206 226 243 44 3 298 281 249 247 276 283 292 298 298 297 298 301 309 310 312 311 304 296 284 272 262 259 260 258 262 269
160 163 155 153 164 168 166 170 175 174 182 196 223 229 188 183 203 218 237 262 270 272 276 284 295 301 304 311 310 304 302 305 307 307 304 298 280 270 263 256 257 258 262
159 162 163 165 164 170 170 171 171 177 184 192 209 210 168 171 204 221 243 264 270 271 272 272 286 294 288 288 295 299 300 302 303 302 304 304 295 281 270 265 263 258 255
148 151 153 156 156 159 158 165 173 183 189 195 192 185 193 217 234 241 253 270 280 286 271 263 287 304 308 290 282 277 282 285 284 285 290 295 296 285 274 263 255 255 257
151 157 162 161 157 163 169 175 180 187 187 188 193 198 203 220 244 253 260 271 279 279 278 281 282 295 309 313 304 294 287 289 288 276 275 281 288 288 283 274 262 258 257
152 156 158 161 164 170 175 177 180 184 184 189 194 202 213 234 249 259 271 272 284 283 291 295 302 302 303 304 308 309 311 313 312 305 285 273 278 281 278 272 267 264 263
148 152 155 161 168 176 180 182 184 185 191 198 203 211 220 235 251 255 263 269 284 292 303 305 305 307 308 307 310 316 320 319 316 311 302 280 280 281 282 272 274 266 267
Height
1516 1517 1518 1519 1521 1521 1522 1522 1523 1523 1523 1523 1522 1522 1522 1521 1520 1519 1519 1518 1517 1516 1516 1515 1514 1513 1513 1512 1512 1511 1511 1510 1509 1508 1508 1507 1507 1506 1506 1505 1504 1504 1504
1513 1514 1515 1517 1518 1519 1519 1520 1520 1520 1521 1520 1520 1520 1519 1519 1518 1517 1516 1515 1514 1514 1513 1512 1511 1510 1510 1509 1508 1508 1507 1507 1507 1505 1505 1504 1504 1504 1503 1503 1502 1502 1501
1511 1511 1512 1514 1515 1515 1516 1517 1517 1518 1518 1518 1517 1517 1517 1516 1515 1515 1514 1513 1512 1511 1511 1510 1508 1508 1507 1506 1505 1505 1504 1504 1503 1503 1502 1502 1502 1501 1501 1501 1500 1499 1499
1507 1508 1509 1510 1512 1513 1513 1514 1514 1515 1515 1515 1515 1514 1514 1513 1512 1512 1511 1510 1509 1509 1508 1507 1506 1505 1504 1503 1502 1502 1501 1501 1500 1500 1499 1499 1499 1498 1498 1498 1497 1497 1496
1504 1505 1506 1508 1509 1510 1510 1511 1511 1512 1512 1512 1511 1511 1511 1510 1509 1509 1508 1507 1507 1506 1505 1504 1503 1502 1501 1501 1500 1499 1498 1498 1497 1497 1497 1496 1496 1496 1496 1496 1495 1494 1494
1501 1502 1503 1504 1505 1506 1507 1508 1508 1509 1509 1509 1508 1508 1508 1507 1507 1506 1505 1505 1504 1503 1502 1501 1500 1499 1498 1498 1497 1496 1496 1495 1494 1494 1494 1493 1493 1493 1493 1493 1492 1492 1491
1497 1499 1500 1501 1502 1503 1504 1505 1505 1506 1506 1506 1505 1505 1505 1504 1504 1503 1503 1502 1501 1500 1499 1498 1496 1495 1494 1494 1494 1493 1492 1492 1492 1492 1491 1491 1491 1491 1491 1491 1490 1489 1489
1494 1495 1497 1498 1499 1500 1500 1501 1502 1502 1503 1503 1502 1502 1502 1501 1501 1500 1500 1499 1498 1497 1496 1495 1493 1492 1492 1491 1490 1489 1489 1489 1489 1489 1488 1488 1488 1489 1489 1488 1487 1487 1486
1491 1492 1494 1495 1496 1496 1497 1498 1499 1499 1500 1500 1499 1499 1499 1498 1498 1497 1496 1495 1494 1494 1493 1491 1491 1489 1488 1488 1487 1486 1485 1485 1486 1486 1485 1485 1485 1486 1486 1485 1484 1484 1482
1488 1490 1491 1492 1493 1493 1494 1495 1496 1496 1496 1496 1496 1496 1496 1495 1495 1494 1493 1492 1491 1490 1489 1489 1488 1486 1485 1485 1484 1483 1482 1481 1482 1481 1482 1481 1481 1482 1482 1482 1481 1480 1479
1486 1487 1488 1489 1489 1490 1491 1492 1492 1493 1493 1493 1493 1493 1493 1492 1491 1491 1490 1489 1488 1487 1486 1485 1484 1483 1482 1481 1481 1480 1479 1478 1478 1478 1477 1477 1477 1477 1478 1478 1478 1477 1476
1483 1484 1485 1486 1486 1487 1488 1488 1489 1489 1489 1489 1489 1489 1489 1489 1488 1487 1486 1486 1485 1484 1482 1482 1481 1480 1479 1478 1477 1476 1476 1475 1475 1474 1473 1473 1473 1473 1473 1473 1474 1473 1473
1480 1481 1482 1482 1483 1483 1484 1485 1485 1486 1486 1486 1486 1486 1485 1485 1484 1484 1483 1482 1481 1480 1479 1479 1478 1477 1476 1475 1474 1473 1472 1472 1471 1470 1470 1469 1469 1469 1469 1469 1469 1469 1469
1477 1477 1478 1479 1479 1480 1481 1481 1482 1482 1482 1483 1482 1482 1482 1481 1481 1480 1480 1479 1478 1477 1476 1476 1475 1474 1473 1471 1471 1470 1469 1468 1467 1466 1466 1466 1465 1465 1465 1464 1464 1464 1464
1474 1474 1475 1476 1476 1476 1477 1478 1478 1479 1479 1480 1479 1479 1478 1478 1478 1478 1477 1476 1475 1475 1474 1473 1472 1471 1469 1468 1467 1466 1465 1465 1464 1463 1462 1462 1461 1461 1461 1461 1460 1460 1460
1470 1471 1472 1472 1473 1473 1474 1474 1475 1476 1476 1476 1476 1476 1476 1476 1475 1474 1474 1474 1473 1472 1471 1470 1469 1468 1467 1465 1465 1463 1462 1461 1460 1459 1459 1459 1458 1457 1457 1457 1457 1457 1456
1467 1468 1469 1469 1469 1470 1470 1470 1471 1472 1472 1473 1473 1473 1473 1472 1472 1471 1471 1471 1470 1469 1468 1467 1466 1466 1464 1463 1462 1461 1460 1459 1458 1457 1456 1455 1455 1454 1454 1454 1454 1454 1453
1465 1466 1466 1466 1467 1467 1467 1467 1468 1468 1469 1469 1469 1470 1470 1469 1469 1469 1469 1468 1467 1466 1466 1465 1464 1464 1463 1461 1460 1458 1457 1456 1454 1453 1453 1452 1452 1451 1451 1450 1450 1450 1450
1462 1462 1463 1463 1464 1464 1465 1465 1466 1466 1466 1466 1467 1467 1467 1467 1466 1466 1466 1465 1464 1464 1464 1463 1462 1461 1460 1459 1457 1456 1454 1453 1452 1451 1450 1449 1449 1448 1448 1447 1447 1447 1447
1459 1460 1460 1461 1461 1461 1462 1463 1463 1464 1464 1464 1464 1464 1464 1464 1463 1463 1463 1463 1462 1462 1462 1460 1459 1458 1457 1456 1455 1453 1452 1450 1449 1448 1447 1446 1446 1445 1445 1445 1444 1444 1443
1456 1457 1457 1458 1458 1459 1459 1460 1461 1461 1461 1461 1461 1461 1461 1461 1461 1461 1461 1460 1460 1460 1459 1458 1456 1455 1454 1453 1452 1450 1449 1448 1447 1445 1444 1443 1442 1442 1442 1442 1441 1441 1440
1454 1454 1454 1455 1455 1456 1457 1457 1458 1458 1458 1458 1458 1459 1459 1459 1459 1459 1458 1458 1458 1457 1456 1455 1454 1452 1451 1450 1449 1448 1446 1445 1444 1442 1441 1440 1439 1439 1438 1438 1438 1438 1438
1451 1451 1451 1452 1453 1454 1455 1455 1455 1455 1456 1456 1456 1456 1456 1456 1456 1456 1456 1455 1455 1454 1453 1452 1451 1449 1448 1447 1446 1445 1444 1442 1441 1440 1439 1437 1437 1436 1435 1435 1435 1435 1435
1448 1448 1449 1449 1450 1451 1452 1452 1453 1453 1453 1453 1453 1454 1454 1454 1454 1454 1453 1453 1452 1451 1450 1449 1448 1446 1445 1444 1443 1442 1441 1440 1438 1437 1436 1435 1434 1433 1432 1432 1432 1432 1431
1445 1446 1446 1447 1448 1449 1449 1449 1450 1450 1450 1451 1451 1451 1451 1451 1451 1451 1450 1450 1449 1448 1447 1446 1445 1443 1442 1441 1440 1439 1438 1437 1435 1434 1433 1432 1431 1430 1429 1429 1429 1428 1428
1443 1443 1444 1445 1445 1446 1446 1447 1447 1447 1448 1448 1448 1448 1448 1448 1448 1448 1447 1447 1446 1445 1444 1443 1442 1441 1439 1438 1437 1436 1435 1433 1432 1431 1430 1429 1428 1427 1427 1426 1425 1425 1425